Bluefield, WV

5:01 PM EST on February 27, 2017 (GMT -0500)
Mercer County

Weather History for KBLF - January, 2014

Change the Weather History Date:

Saturday, January 11, 2014

  Actual Average Record
Temperature  
Mean Temperature 50 °F 34 °F  
Max Temperature 60 °F 42 °F 60 °F (2005)
Min Temperature 39 °F 26 °F -11 °F (1982)
Degree Days  
Heating Degree Days 15 31  
Month to date heating degree days 370 341  
Since 1 July heating degree days 2067 2106  
Cooling Degree Days 0 0  
Month to date cooling degree days 0 0  
Year to date cooling degree days 0 0  
Moisture  
Dew Point 44 °F    
Average Humidity 71    
Maximum Humidity 83    
Minimum Humidity 59    
Precipitation  
Precipitation 0.50 in 0.10 in 0.80 in (1991)
Month to date precipitation 1.12 1.04  
Year to date precipitation 1.12 1.04  
Snow  
Snow 0.00 in - - ()
Month to date snowfall 3.7  
Since 1 July snowfall 8.0  
Snow Depth 0.00 in    
Sea Level Pressure  
Sea Level Pressure 29.68 in    
Wind  
Wind Speed 12 mph (WSW)    
Max Wind Speed 24 mph    
Max Gust Speed 36 mph    
Visibility 9 miles    
Events Rain    
T = Trace of Precipitation, MM = Missing Value Source: NWS Daily Summary

Daily Weather History Graph

Daily Weather History Graph

Search for Another Location

Airport or City:

Trip Planner

Search our weather history database for the weather conditions in past years. The results will help you decide how hot, cold, wet, or windy it might be!

Date:

Astronomy

Jan. 11, 2014 Rise Set
Actual Time 7:38 AM EST 5:27 PM EST
Civil Twilight 7:10 AM EST 5:55 PM EST
Nautical Twilight 6:37 AM EST 6:27 PM EST
Astronomical Twilight 6:06 AM EST 6:59 PM EST
Moon 2:09 PM EST (1/11) 3:43 AM EST (1/11)
Length of Visible Light 10h 45m
Length of Day
9h 48m
Waxing Gibbous, 83% of the Moon is Illuminated
Jan 11
Waxing Gibbous
Jan 15
Full
Jan 24
Last Quarter
Jan 30
New
Feb 6
First Quarter

Hourly Weather History & Observations

Time (EST) Temp. Windchill Dew Point Humidity Pressure Visibility Wind Dir Wind Speed Gust Speed Precip Events Conditions
12:52 AM 53.1 °F - 48.0 °F 83% 29.94 in 10.0 mi SSE 15.0 mph 24.2 mph N/A   Overcast
1:52 AM 54.0 °F - 48.9 °F 83% 29.91 in 9.0 mi Variable 6.9 mph 21.9 mph 0.00 in Rain Light Rain
1:59 AM 53.6 °F - 48.2 °F 82% 29.93 in 7.0 mi SSE 8.1 mph - 0.01 in Rain Light Rain
2:52 AM 55.0 °F - 48.9 °F 80% 29.88 in 10.0 mi Calm Calm - 0.01 in   Overcast
3:49 AM 55.4 °F - 50.0 °F 82% 29.87 in 10.0 mi Variable 4.6 mph - N/A   Overcast
3:52 AM 57.0 °F - 50.0 °F 77% 29.83 in 10.0 mi Variable 5.8 mph - N/A   Overcast
4:52 AM 57.0 °F - 48.9 °F 74% 29.78 in 10.0 mi Variable 3.5 mph - N/A   Mostly Cloudy
5:52 AM 57.0 °F - 48.9 °F 74% 29.74 in 10.0 mi Variable 5.8 mph - N/A   Mostly Cloudy
6:09 AM 57.2 °F - 48.2 °F 72% 29.78 in 10.0 mi South 11.5 mph 20.7 mph N/A   Scattered Clouds
6:52 AM 57.9 °F - 50.0 °F 75% 29.69 in 10.0 mi South 12.7 mph 20.7 mph 0.00 in   Overcast
7:52 AM 60.1 °F - 48.9 °F 67% 29.62 in 10.0 mi South 16.1 mph 25.3 mph N/A   Overcast
8:52 AM 60.1 °F - 48.9 °F 67% 29.61 in 10.0 mi South 13.8 mph 24.2 mph N/A   Overcast
9:25 AM 55.4 °F - 50.0 °F 82% 29.72 in 2.0 mi West 15.0 mph 29.9 mph 0.12 in Rain Heavy Rain
9:30 AM 55.4 °F - 50.0 °F 82% 29.72 in 3.0 mi West 15.0 mph 28.8 mph 0.13 in Rain Rain
9:52 AM 55.0 °F - 50.0 °F 83% 29.69 in 7.0 mi West 13.8 mph 20.7 mph 0.16 in Rain Light Rain
10:01 AM 55.4 °F - 50.0 °F 82% 29.75 in 9.0 mi West 12.7 mph 20.7 mph 0.01 in Rain Light Rain
10:29 AM 55.4 °F - 50.0 °F 82% 29.75 in 8.0 mi WSW 17.3 mph 26.5 mph 0.04 in Rain Light Rain
10:40 AM 55.4 °F - 48.2 °F 77% 29.75 in 6.0 mi West 13.8 mph 26.5 mph 0.07 in Rain Rain
10:48 AM 55.4 °F - 48.2 °F 77% 29.73 in 6.0 mi WSW 17.3 mph 25.3 mph 0.08 in Rain Rain
10:52 AM 55.0 °F - 48.9 °F 80% 29.69 in 6.0 mi WSW 17.3 mph 25.3 mph 0.09 in Rain Rain
11:52 AM 53.1 °F - 46.0 °F 77% 29.63 in 9.0 mi SW 12.7 mph 19.6 mph 0.14 in Rain Light Rain
12:52 PM 54.0 °F - 46.0 °F 75% 29.53 in 10.0 mi SSW 9.2 mph 18.4 mph 0.02 in   Overcast
1:08 PM 53.6 °F - 46.4 °F 77% 29.59 in 10.0 mi SW 10.4 mph 19.6 mph N/A   Overcast
1:42 PM 53.6 °F - 46.4 °F 77% 29.58 in 10.0 mi WSW 10.4 mph 20.7 mph N/A   Overcast
1:52 PM 54.0 °F - 46.0 °F 75% 29.52 in 10.0 mi West 13.8 mph 26.5 mph N/A   Mostly Cloudy
2:15 PM 53.6 °F - 46.4 °F 77% 29.58 in 10.0 mi WSW 11.5 mph 25.3 mph N/A   Mostly Cloudy
2:52 PM 54.0 °F - 45.0 °F 72% 29.51 in 10.0 mi West 9.2 mph - N/A   Clear
3:29 PM 53.6 °F - 44.6 °F 72% 29.57 in 10.0 mi WSW 13.8 mph - N/A   Mostly Cloudy
3:52 PM 53.1 °F - 45.0 °F 74% 29.52 in 10.0 mi West 8.1 mph - N/A   Scattered Clouds
4:52 PM 53.1 °F - 39.9 °F 61% 29.51 in 10.0 mi West 19.6 mph 25.3 mph N/A   Scattered Clouds
5:32 PM 51.8 °F - 39.2 °F 62% 29.56 in 10.0 mi WSW 12.7 mph 23.0 mph N/A   Mostly Cloudy
5:52 PM 51.1 °F - 39.9 °F 66% 29.50 in 10.0 mi WSW 12.7 mph 19.6 mph N/A   Overcast
6:27 PM 46.4 °F 41.5 °F 39.2 °F 76% 29.58 in 7.0 mi West 10.4 mph 31.1 mph 0.06 in Rain Light Rain
6:52 PM 46.9 °F - 39.0 °F 74% 29.55 in 10.0 mi West 19.6 mph 25.3 mph 0.07 in Rain Light Rain
7:52 PM 46.9 °F - 36.0 °F 66% 29.60 in 10.0 mi WNW 13.8 mph 25.3 mph 0.01 in   Overcast
8:52 PM 44.1 °F 37.1 °F 32.0 °F 63% 29.64 in 10.0 mi WNW 15.0 mph 20.7 mph 0.00 in   Partly Cloudy
9:52 PM 44.1 °F 38.6 °F 33.1 °F 65% 29.67 in 10.0 mi WNW 10.4 mph 19.6 mph N/A   Overcast
10:00 PM 44.6 °F 37.8 °F 32.0 °F 61% 29.71 in 10.0 mi WNW 15.0 mph 24.2 mph N/A   Overcast
10:15 PM 42.8 °F 34.8 °F 32.0 °F 66% 29.72 in 10.0 mi West 17.3 mph 28.8 mph N/A   Mostly Cloudy
10:52 PM 41.0 °F 35.2 °F 30.9 °F 67% 29.72 in 10.0 mi West 9.2 mph 25.3 mph N/A   Overcast
11:05 PM 41.0 °F 31.9 °F 30.2 °F 65% 29.75 in 10.0 mi WNW 19.6 mph 32.2 mph N/A   Overcast
11:21 PM 39.2 °F 29.3 °F 28.4 °F 65% 29.75 in 10.0 mi WNW 20.7 mph 34.5 mph N/A   Overcast
11:52 PM 39.0 °F 30.3 °F 28.9 °F 67% 29.74 in 10.0 mi WNW 16.1 mph 25.3 mph N/A   Overcast